Location: ??????
(30.5519°N, 47.7720°E)
Time: 17:31:14
(UTC+00:00)

Cosmos 1680 Rocket - Pass Details

Date: 24 January 2021
Orbit: 761 x 780 km, 74.1° (Epoch: 01 March)

Event Time Altitude Azimuth Distance (km) Brightness Sun altitude
Rises 15:58:45 0° 338° (NNW) 3,231 6.9 -21.6°
Reaches altitude 10° 16:01:09 10° 335° (NNW) 2,300 6.1 -22.1°
Maximum altitude 16:06:15 57° 257° (WSW) 888 4.1 -23.2°
Drops below altitude 10° 16:11:19 10° 179° (S) 2,282 6.0 -24.3°
Sets 16:13:42 0° 175° (S) 3,204 6.8 -24.8°
